www.pogodaiklimat.ru

Погода и климат >> Архив погоды >> Канада >> Chapleau A


ПОГОДА в Chapleau A

  • Прогноз погоды в Chapleau A
  • Монитор погоды в Chapleau A
  • Климат города

АРХИВ ПОГОДЫ в Chapleau A

Время (UTC), дата Ветер
(напр.,м/с)
 
Видим.   Явления Облачность Т
(С)
Тd
(С)
f
(%)
Тe
(С)
Тes
(С)
Комфортность P
(гПа)
Po
(гПа)
Тmin
(С)
Tmax
(С)
R
(мм)
R24
(мм)
S
(см)
00 15.02 Ю 2 24 км 3/0
[Ac As]
-1.6 -7.3 65 -4 -4 1006.6 951.5 +2.1
12 15.02 штиль 0 24 км 10/10 50 м
[Frnb]
-2.2 -3.6 90 -3 -3 999.6 945.1 43
15 15.02 ЮЗ 2 4800 м н/о -0.7 -1.1 97 -4 -4 999.5 945.1
18 15.02 СЗ 2 19 км в посл. час дождь {снег} 10/10 300 м
[Sc]
-1.0 -3.5 83 -5 -5 1000.9 946.3 0.0 42
21 15.02 С 6 24 км 10/10 200 м
[]
-10.4 -13.4 79 -19 -19 1005.3 949.9
00 16.02 С 5 19 км слабый снег {морось} 10/10 300 м
[Sc]
-12.9 -15.7 79 -21 -21 1009.8 954.0 +0.5 0.2 40
12 16.02 СЗ 2 24 км слабый снег 10/10 200 м
[Sc]
-16.3 -18.7 82 -22 -22 1016.0 959.0 0.2 40
15 16.02 З 3 24 км 8/8 300 м
[]
-15.3 -19.9 68 -21 -21 1017.7 960.6
18 16.02 З 6 24 км позёмок {снег} ясно -10.9 -21.3 42 -20 -17 1017.3 960.4 0.0 40
21 16.02 З 6 24 км 1/1 600 м
[]
-9.7 -18.5 49 -18 -18 1017.2 960.4
00 17.02 ЮЗ 5 24 км слабый снег 10/10 600 м
[Sc]
-11.1 -16.0 67 -19 -19 1019.4 962.3 -8.9 0.0 40
12 17.02 Ю 5 24 км 10/0
[As trans]
-14.4 -18.2 73 -23 -23 1013.7 957.1 40
15 17.02 Ю 8 24 км 10/0
[]
-9.0 -15.8 58 -18 -18 1011.2 955.0
18 17.02 Ю 10 24 км 9/9 600 м
[Sc]
-3.7 -11.3 56 -12 -12 1007.9 952.1
21 17.02 ЮЗ 5 24 км 10/10 600 м
[]
-4.4 -8.8 71 -11 -11 1007.5 951.6
00 18.02 ЮЗ 4 24 км слабый снег 10/10 600 м
[Sc]
-6.3 -10.3 73 -12 -12 1009.3 953.2 -3.1 0.2 40
12 18.02 СЗ 2 24 км 4/4 1000 м
[Sc]
-14.0 -17.1 77 -18 -18 1019.6 963.0 0.6 45
15 18.02 ЮВ 2 24 км 9/9 1000 м
[]
-11.8 -17.3 64 -15 -15 1022.7 966.0
18 18.02 ЮЗ 6 24 км {снег} 9/9 600 м
[]
-5.3 -13.5 52 -12 -12 1021.6 965.3 0.0 45
21 18.02 Ю 5 24 км 10/10 1500 м
[]
-4.8 -13.9 49 -11 -11 1019.9 963.7
00 19.02 Ю 4 1000 м снег 9/0 600 м
[As op]
-6.2 -7.8 88 -13 -13 1017.2 960.7 -4.6 0.0 45
12 19.02 Ю 2 24 км слабый снег 10/10 200 м
[Sc]
-2.4 -3.4 93 -7 -7 1014.3 958.7 0.6 45
15 19.02 С 6 24 км 10/10 200 м
[]
-12.0 -13.9 86 -21 -21 1018.7 962.4
18 19.02 С 6 1600 м слабый снег 8/8 300 м
[Sc]
-13.7 -16.6 79 -23 -22 1021.3 964.8 1 46
21 19.02 СВ 5 400 м н/о -15.1 -17.5 82 -24 -24 1023.6 966.9
00 20.02 СВ 7 24 км {снег} 10/0 1000 м
[As op]
-15.5 -18.1 80 -26 -26 1025.1 968.3 -2.3 3 52
12 20.02 СВ 5 24 км слабый снег 10/10 200 м
[Sc]
-17.7 -19.5 86 -27 -27 1020.6 963.1 3 59
15 20.02 СВ 4 4800 м 10/10 300 м
[]
-17.1 -19.2 84 -25 -25 1018.3 960.9

 

Местоположение метеостанции Chapleau A (Канада): широта 47.82 долгота -83.35 высота над уровнем моря 447 м.

В архиве по умолчанию представлена погода в Chapleau A за последнюю неделю. Архивные данные за месяц целиком и за предыдущие месяцы, начиная с января 2011 года, Вы можете получить, выбрав интересующий диапазон дат из раскрывающегося списка и нажав кнопку "Ввод!".

Внимание! Время в таблицах - всемирное. Для получения местного времени необходимо прибавить поправку, которая в Chapleau A равна -5 ч.

Смотрите также архив погоды в соседних городах и на ближайших метеорологических станциях:

Погода в Lake Superior Provincial Park (Канада) (103 км)
Погода в Wawa (Канада) (108 км)
Погода в Montreal River Radar (Канада) (120 км)
Погода в Timmins Climate (Канада) (167 км)
Погода в Timmins (Канада) (169 км)
Погода в Sault Ste Marie (Канада) (173 км)
Погода в Elliott Lake (Канада) (174 км)
Погода в Kapuskasing (Канада) (188 км)
Погода в Kapuskasing (Канада) (188 км)
Погода в Kapuskasing Airport (Канада) (190 км)

Пояснения к столбцам:

Ветер - указаны скорость ветра в м/с - средняя за 10 мин, порывы в срок и между сроками (в фигурных скобках) и направление, откуда дует ветер: С - северный, СВ - северо-восточный, В - восточный, ЮВ - юго-восточный, Ю - южный, ЮЗ - юго-западный, З - западный, СЗ - северо-западный.
Видимость - горизонтальная дальность видимости в метрах или километрах. При видимости от 1 до 10 км при отсутствии осадков обычно наблюдается дымка, при ухудшении видимости до 1 км и менее - туман. В сухую погоду видимость может ухудшаться дымом, пылью или мглою.
Явления - указаны атмосферные явления, наблюдавшиеся в срок или в последний час перед сроком; фигурными скобками обозначены явления, наблюдавшиеся между сроками (за 1-3 часа до срока); квадратными скобками обозначены град или гололедные отложения с указанием их диаметра в мм.
Облачность - указаны через наклонную черту общая и нижняя облачность в баллах и высота нижней границы облаков в метрах; квадратными скобками обозначены формы облаков: Ci - перистые, Cs - перисто-слоистые, Cc - перисто-кучевые, Ac - высококучевые, As - высокослоистые, Sc - слоисто-кучевые, Ns - слоисто-дождевые, Cu - кучевые, Cb - кучево-дождевые. Подробнее классификацию облаков см. в Атласе облаков (PDF).
T - Температура воздуха - температура, измеренная на высоте 2 м над землей.
Td - Температура точки росы - температура, при понижении до которой содержащийся в воздухе водяной пар достигнет насыщения.
f - Относительная влажность воздуха - влажноcть воздуха, измеренная на высоте 2 м над землей.
Te - Эффективная температура - температура, которую ощущает одетый по сезону человек в тени. Характеристика душности погоды. При расчете учитывается влияние влажности воздуха и скорости ветра на теплоощущения человека.
Tes - Эффективная температура на солнце - температура, которую ощущает человек, с поправкой на солнечный нагрев. Характеристика знойности погоды. Зависит от высоты солнца над горизонтом, облачности и скорости ветра. Ночью, в пасмурную погоду, а также при ветре 12 м/с и более поправка равна нулю.
P - Атмосферное давление - приведенное к уровню моря атмосферное давление.
Po - Атмосферное давление - измеренное на уровне метеостанции атмосферное давление.
Tmin - Минимальная температура - минимум температуры воздуха на высоте 2 м над землей.
Tmax - Максимальная температура - максимум температуры воздуха на высоте 2 м над землей.
R - Количество осадков - Количество выпавших осадков за период времени, мм. При наведении курсора мыши на число - период времени, за который выпало указанное количество осадков.
R24 - Количество осадков - Количество выпавших осадков за 24 часа, мм.
S - Снежный покров - Высота снежного покрова, см. При наведении курсора мыши на число - состояние снежного покрова и степень покрытия местности в баллах.